Location: Newark
(25.4297°S, 49.2719°W)
Time: 03:14:48
(UTC+00:00)

Hubble Space Telescope - Pass Details

Date: 30 June 2021
Orbit: 535 x 539 km, 28.5° (Epoch: 28 July)

Event Time Altitude Azimuth Distance (km) Brightness Sun altitude
Rises 21:21:45 0° 312° (NW) 2,664 5.8 -9.9°
Reaches altitude 10° 21:24:11 10° 323° (NW) 1,777 4.4 -10.4°
Maximum altitude 21:27:48 29° 24° (NNE) 984 2.1 -11.2°
Enters shadow 21:30:46 14° 81° (E) 1,569 2.6 -11.8°
